This demonstration page uses our WeatherBlox Daily Observations layout. Learn more.

Hourly Observations for December 11, 2019

Temp ( °F °C ) Dew Point ( °F °C ) Humidity (%) Winds ( mph kmh ) Pressure ( in mb ) Visibility ( mi km ) Precip ( " mm )
12:15 am 00:15 Cloudy 34 1 34 1 100 100 NW 6 9 30.24 1024 10 16.0934 0 0
12:35 am 00:35 Cloudy 34 1 34 1 100 100 N 5 7 30.23 1024 10 16.0934 0.01 0.254
12:55 am 00:55 Cloudy 34 1 32 0 93 93 NNW 5 7 30.23 1024 10 16.0934 0.01 0.254
1:15 am 01:15 Cloudy 34 1 32 0 93 93 N 6 9 30.24 1024 10 16.0934 0 0
1:35 am 01:35 Cloudy 34 1 32 0 93 93 NNW 6 9 30.25 1024 10 16.0934 0 0
1:55 am 01:55 Cloudy 34 1 32 0 93 93 NW 16 26 30.27 1025 5 8.0467 0 0
2:15 am 02:15 Cloudy 32 0 32 0 100 100 NW 10 17 30.28 1025 1 1.60934 0 0
2:35 am 02:35 Cloudy 32 0 32 0 100 100 NNW 14 22 30.29 1026 1.5 2.41401 0 0
2:55 am 02:55 Cloudy 30 -1 30 -1 100 100 NNW 8 13 30.28 1026 10 16.0934 0 0
3:15 am 03:15 Cloudy 32 0 30 -1 93 93 NW 7 11 30.29 1026 10 16.0934 0 0
3:35 am 03:35 Cloudy 32 0 30 -1 93 93 NW 3 6 30.27 1025 10 16.0934 0 0
3:55 am 03:55 Cloudy 32 0 30 -1 93 93 WNW 5 7 30.29 1026 10 16.0934 0 0
4:15 am 04:15 Cloudy 32 0 30 -1 93 93 WNW 6 9 30.3 1026 10 16.0934 0 0
4:35 am 04:35 Cloudy 32 0 30 -1 93 93 W 3 6 30.29 1026 7 11.26538 0 0
4:55 am 04:55 Cloudy 32 0 30 -1 93 93 Calm 30.3 1026 10 16.0934 0 0
5:15 am 05:15 Cloudy 32 0 30 -1 93 93 W 7 11 30.33 1027 10 16.0934 0 0
5:35 am 05:35 Cloudy 32 0 28 -2 87 87 NW 9 15 30.33 1027 10 16.0934 0 0
5:55 am 05:55 Cloudy 32 0 27 -3 80 80 NW 9 15 30.33 1027 10 16.0934 0 0
6:15 am 06:15 Mostly Cloudy 32 0 27 -3 80 80 NW 10 17 30.33 1027 10 16.0934 0 0
6:35 am 06:35 Clear 32 0 27 -3 80 80 NW 9 15 30.34 1027 10 16.0934 0 0
6:55 am 06:55 Clear 32 0 27 -3 80 80 NW 8 13 30.35 1028 10 16.0934 0 0
7:15 am 07:15 Clear 32 0 27 -3 80 80 NW 8 13 30.37 1029 10 16.0934 0 0
7:35 am 07:35 Sunny 32 0 25 -4 75 75 NW 8 13 30.38 1029 10 16.0934 0 0
7:55 am 07:55 Sunny 32 0 23 -5 69 69 NW 8 13 30.39 1029 10 16.0934 0 0
8:15 am 08:15 Sunny 32 0 23 -5 69 69 NW 9 15 30.41 1030 10 16.0934 0 0
8:35 am 08:35 Sunny 32 0 23 -5 69 69 NW 9 15 30.41 1030 10 16.0934 0 0
8:55 am 08:55 Sunny 32 0 23 -5 69 69 NW 15 24 30.42 1030 10 16.0934 0 0
9:15 am 09:15 Sunny 32 0 23 -5 69 69 NW 13 20 30.42 1030 10 16.0934 0 0
9:35 am 09:35 Sunny 32 0 21 -6 64 64 NW 15 24 30.43 1031 10 16.0934 0 0
9:55 am 09:55 Sunny 32 0 21 -6 64 64 NW 12 19 30.43 1031 10 16.0934 0 0
10:15 am 10:15 Sunny 34 1 21 -6 60 60 WNW 7 11 30.42 1030 10 16.0934 0 0
10:35 am 10:35 Sunny 34 1 23 -5 65 65 NW 15 24 30.42 1030 10 16.0934 0 0
10:55 am 10:55 Sunny 34 1 23 -5 65 65 NW 16 26 30.42 1030 10 16.0934 0 0
11:15 am 11:15 Sunny 34 1 21 -6 60 60 WNW 18 30 30.42 1030 10 16.0934 0 0
11:35 am 11:35 Sunny 34 1 21 -6 60 60 NNW 17 28 30.4 1029 10 16.0934 0 0
11:55 am 11:55 Sunny 34 1 21 -6 60 60 NNW 14 22 30.4 1029 10 16.0934 0 0
12:15 pm 12:15 Sunny 36 2 21 -6 56 56 WNW 12 19 30.41 1030 10 16.0934 0 0
12:35 pm 12:35 Sunny 36 2 21 -6 56 56 NW 15 24 30.4 1029 10 16.0934 0 0
12:55 pm 12:55 Sunny 36 2 23 -5 60 60 NNW 14 22 30.38 1029 10 16.0934 0 0
1:15 pm 13:15 Sunny 36 2 21 -6 56 56 NW 16 26 30.37 1028 10 16.0934 0 0
1:35 pm 13:35 Sunny 37 3 23 -5 56 56 NW 9 15 30.38 1029 10 16.0934 0 0
1:55 pm 13:55 Sunny 37 3 23 -5 56 56 NW 7 11 30.38 1029 10 16.0934 0 0
2:15 pm 14:15 Sunny 37 3 21 -6 52 52 WNW 6 9 30.39 1029 10 16.0934 0 0
2:35 pm 14:35 Sunny 37 3 19 -7 48 48 W 12 19 30.39 1029 10 16.0934 0 0
2:55 pm 14:55 Sunny 37 3 19 -7 48 48 W 13 20 30.39 1029 10 16.0934 0 0
3:15 pm 15:15 Sunny 37 3 19 -7 48 48 W 12 19 30.4 1029 10 16.0934 0 0
3:35 pm 15:35 Sunny 37 3 19 -7 48 48 WNW 8 13 30.41 1030 10 16.0934 0 0
3:55 pm 15:55 Sunny 37 3 18 -8 45 45 WNW 16 26 30.42 1030 10 16.0934 0 0
4:15 pm 16:15 Sunny 37 3 18 -8 45 45 WNW 10 17 30.43 1030 10 16.0934 0 0
4:35 pm 16:35 Sunny 36 2 18 -8 48 48 NW 7 11 30.44 1031 10 16.0934 0 0
4:55 pm 16:55 Clear 36 2 18 -8 48 48 NNW 3 6 30.44 1031 10 16.0934 0 0
5:15 pm 17:15 Clear 36 2 18 -8 48 48 NNW 8 13 30.45 1031 10 16.0934 0 0
5:35 pm 17:35 Clear 34 1 19 -7 56 56 NW 8 13 30.46 1032 10 16.0934 0 0
5:55 pm 17:55 Clear 32 0 19 -7 60 60 NW 7 11 30.47 1032 10 16.0934 0 0
6:15 pm 18:15 Clear 34 1 18 -8 51 51 NNW 8 13 30.48 1032 10 16.0934 0 0
6:35 pm 18:35 Clear 34 1 18 -8 51 51 NNW 8 13 30.49 1033 10 16.0934 0 0
6:55 pm 18:55 Clear 32 0 19 -7 60 60 NNW 12 19 30.5 1033 10 16.0934 0 0
7:15 pm 19:15 Clear 34 1 19 -7 56 56 NW 13 20 30.51 1033 10 16.0934 0 0
7:35 pm 19:35 Clear 34 1 19 -7 56 56 NW 9 15 30.52 1034 10 16.0934 0 0
7:55 pm 19:55 Clear 34 1 19 -7 56 56 NW 12 19 30.53 1034 10 16.0934 0 0
8:15 pm 20:15 Clear 32 0 19 -7 60 60 NW 10 17 30.54 1034 10 16.0934 0 0
8:35 pm 20:35 Clear 32 0 19 -7 60 60 NW 7 11 30.55 1035 10 16.0934 0 0
8:55 pm 20:55 Clear 32 0 19 -7 60 60 NW 8 13 30.55 1035 10 16.0934 0 0
9:15 pm 21:15 Clear 32 0 19 -7 60 60 NW 9 15 30.55 1035 10 16.0934 0 0
9:35 pm 21:35 Clear 32 0 19 -7 60 60 NW 12 19 30.56 1035 10 16.0934 0 0
9:55 pm 21:55 Partly Cloudy 32 0 19 -7 60 60 NW 7 11 30.56 1035 10 16.0934 0 0
10:15 pm 22:15 Mostly Cloudy 32 0 19 -7 60 60 Calm 30.57 1035 10 16.0934 0 0
10:35 pm 22:35 Cloudy 32 0 21 -6 64 64 Calm 30.58 1036 10 16.0934 0 0
10:55 pm 22:55 Cloudy 30 -1 21 -6 69 69 Calm 30.59 1036 10 16.0934 0 0
11:15 pm 23:15 Cloudy 30 -1 21 -6 69 69 Calm 30.6 1036 10 16.0934 0 0
11:35 pm 23:35 Cloudy 30 -1 21 -6 69 69 W 6 9 30.61 1037 10 16.0934 0 0
11:55 pm 23:55 Mostly Cloudy 30 -1 21 -6 69 69 NW 7 11 30.61 1037 10 16.0934 0 0

Powered by AerisWeather